Location: Killam
(52.7910°N, 111.8608°W)
Time: 17:04:44
(UTC+00:00)

Vanguard 2 Rocket - Pass Details

Date: 21 February 2026
Orbit: 553 x 3286 km, 32.9° (Epoch: 11 March)

Event Time Altitude Azimuth Distance (km) Brightness Sun altitude
Rises 16:28:29 0° 189° (S) 7,036 11.9 14.7°
Reaches altitude 10° 16:36:03 10° 172° (S) 6,203 12.1 15.5°
Maximum altitude 16:46:04 16° 141° (SE) 5,611 13.9 16.6°
Drops below altitude 10° 16:55:27 10° 110° (ESE) 5,828 12.3 17.6°
Sets 17:02:01 0° 93° (E) 6,443 11.9 18.3°
